Find Starlink 35023

NORAD ID: 65279 Int'l Des: 2025-184 Owner: SPXS Country: US Constellation: starlink operational
LEOCIRCULARRETROGRADESSO

当前视图

正在加载3D地球...

About Starlink 35023

Starlink 35023 (NORAD 65279) is a starlink constellation satellite (v2 mini) launched Aug 22, 2025 by SPXS of US. It operates in LEO, CIRCULAR, RETROGRADE, SSO orbit with a mass of 575.00 kg.

即将过境

Passes for default location (London). Set your location on the main map for personalized predictions.

高度历史

Loading altitude history...

两行轨道根数

1 65279U 25184G 26252.67729448 .00010999 00000-0 34272-3 0 9992
2 65279 97.2854 300.7675 0003051 86.4475 273.7116 15.33423926 59062
Epoch: Sep 9, 2026 • Age: 25 hours

当前状态

高度 489.4 km
远地点 / 近地点 N/A
速度 7.62 km/s
星下点 -56.51°S, 130.7°W
发射日期 Aug 22, 2025
运行时间 1 year
类型 internet

技术详情

分类 Payload
质量 575.00 kg
干质量 530.00 kg
总质量 575.00 kg
长度 0.30 m
直径 4.10 m
跨度 29.00 m
形状 Box + pan
制造商 SPXS
平台类型 Starlink V2MO
阶段状态 In Orbit
所有者/国家 SPXS/US

Most Searched